Flight Track Log - Related Links

Times and Time Zones

All times are in EDT time to prevent confusion due to time zone crossing. See the SSX923 flight status page for this flight to view local times or setup timezone preferences in your user account.

Time Position Orientation Groundspeed Altitude Reporting Facility
EDT Latitude Longitude Course Direction KTS MPH feet Rate Location/Type
Sat 10:37:46 AM 39.7935 -104.6565 279° West  Level FlightAware Approximate
Sat 10:38:41 AM 39.8167 -104.8500 218° Southwest 178 205 11,300  Level Denver TRACON
Sat 10:39:42 AM 39.7667 -104.9000 169° South 218 251 13,300 2,494 Climbing Denver TRACON
Sat 10:40:10 AM 39.7414 -104.8933 193° South 209 241 15,000 2,250 Climbing Denver Center
Sat 10:41:10 AM 39.6936 -104.9081 194° South 194 223 16,600 1,700 Climbing Denver Center
Sat 10:42:10 AM 39.6397 -104.9256 194° South 199 229 18,400 1,700 Climbing Denver Center
Sat 10:43:10 AM 39.5856 -104.9428 191° South 205 236 20,000 1,550 Climbing Denver Center
Sat 10:44:10 AM 39.5253 -104.9578 192° South 210 242 21,500 1,400 Climbing Denver Center
Sat 10:45:10 AM 39.4631 -104.9753 191° South 225 259 22,800 750 Climbing Denver Center
Sat 10:46:10 AM 39.3944 -104.9928 192° South 238 274 23,000 400 Climbing Denver Center
Sat 10:47:10 AM 39.3197 -105.0131 192° South 267 307 23,600 500 Climbing Denver Center
Sat 10:48:10 AM 39.2428 -105.0336 192° South 282 325 24,000 200 Climbing Denver Center
Sat 10:49:10 AM 39.1597 -105.0567 201° Southwest 295 339 24,000  Level Denver Center
Sat 10:50:10 AM 39.0808 -105.0956 205° Southwest 295 339 24,000  Level Denver Center
Sat 10:51:10 AM 39.0042 -105.1425 204° Southwest 307 353 24,000  Level Denver Center
Sat 10:52:10 AM 38.9297 -105.1842 207° Southwest 304 350 24,000  Level Denver Center
Sat 10:53:10 AM 38.8656 -105.2253 206° Southwest 279 321 24,000  Level Denver Center
Sat 10:54:10 AM 38.7992 -105.2664 203° Southwest 260 299 24,000  Level Denver Center
Sat 10:55:10 AM 38.7369 -105.2994 206° Southwest 253 291 24,000  Level Denver Center
Sat 10:56:10 AM 38.6789 -105.3350 204° Southwest 253 291 24,000  Level Denver Center
Sat 10:57:10 AM 38.6106 -105.3733 204° Southwest 253 291 24,000  Level Denver Center
Sat 10:58:10 AM 38.5422 -105.4114 193° South 260 299 24,000  Level Denver Center
Sat 10:59:10 AM 38.4756 -105.4308 196° South 275 316 24,000  Level Denver Center
Sat 11:00:10 AM 38.4050 -105.4558 195° South 275 316 24,000  Level Denver Center
Sat 11:01:10 AM 38.3342 -105.4806 196° South 257 296 24,000  Level Denver Center
Sat 11:02:10 AM 38.2594 -105.5081 195° South 262 302 24,000  Level Denver Center
Sat 11:03:09 AM 38.1847 -105.5331 194° South 294 338 24,000  Level Denver Center
Sat 11:04:10 AM 38.0994 -105.5603 195° South 314 361 24,000  Level Denver Center
Sat 11:05:10 AM 38.0119 -105.5906 197° South 314 361 24,000  Level Denver Center
Sat 11:06:10 AM 37.9372 -105.6203 195° South 291 335 24,000  Level Denver Center
Sat 11:07:10 AM 37.8706 -105.6422 195° South 278 320 24,000  Level Denver Center
Sat 11:08:10 AM 37.7917 -105.6694 194° South 290 334 24,000  Level Denver Center
Sat 11:09:10 AM 37.7064 -105.6964 195° South 295 339 24,000  Level Denver Center
Sat 11:10:10 AM 37.6272 -105.7236 195° South 295 339 24,000  Level Denver Center
Sat 11:11:10 AM 37.5567 -105.7478 195° South 300 345 24,000  Level Denver Center
Sat 11:12:10 AM 37.4692 -105.7775 196° South 300 345 24,000  Level Denver Center
Sat 11:13:10 AM 37.3944 -105.8044 229° Southwest 300 345 24,000  Level Denver Center
Sat 11:14:10 AM 37.3447 -105.8753 266° West 285 328 24,000  Level Denver Center
Sat 11:15:10 AM 37.3389 -105.9719 263° West 282 325 24,000  Level Denver Center
Sat 11:16:10 AM 37.3289 -106.0817 258° West 304 350 24,000  Level Denver Center
Sat 11:17:10 AM 37.3125 -106.1781 264° West 298 343 24,000  Level Denver Center
Sat 11:18:10 AM 37.3044 -106.2800 262° West 293 337 24,000  Level Denver Center
Sat 11:19:10 AM 37.2942 -106.3686 263° West 293 337 24,000  Level Denver Center
Sat 11:20:10 AM 37.2839 -106.4703 264° West 293 337 24,000  Level Denver Center
Sat 11:21:10 AM 37.2753 -106.5772 264° West 293 337 24,000  Level Denver Center
Sat 11:22:10 AM 37.2669 -106.6711 264° West 284 327 24,000 -350 Level Denver Center
Sat 11:23:10 AM 37.2606 -106.7467 259° West 258 297 23,300 -800 Descending Denver Center
Sat 11:24:10 AM 37.2478 -106.8328 265° West 253 291 22,400 -1,050 Descending Denver Center
Sat 11:25:10 AM 37.2411 -106.9239 263° West 253 291 21,200 -1,050 Descending Denver Center
Sat 11:26:10 AM 37.2325 -107.0072 262° West 248 285 20,300 -1,150 Descending Denver Center
Sat 11:27:10 AM 37.2236 -107.0853 263° West 253 291 18,900 -1,600 Descending Denver Center
Sat 11:28:10 AM 37.2147 -107.1817 262° West 258 297 17,100 -1,700 Descending Denver Center
Sat 11:29:10 AM 37.2058 -107.2650 262° West 252 290 15,500 -1,650 Descending Denver Center
Sat 11:30:10 AM 37.1969 -107.3456 261° West 246 283 13,800 -1,664 Descending Denver Center
Sat 11:31:09 AM 37.1881 -107.4158 273° West 237 273 12,200 -1,600 Descending Denver Center
Sat 11:32:10 AM 37.1917 -107.4967 273° West 222 255 10,600 -1,289 Descending Denver Center
Sat 11:33:10 AM 37.1950 -107.5669 281° West 212 244 9,600 -807 Descending Denver Center
Sat 11:34:09 AM 37.2050 -107.6297 278° West 198 228 9,000 -550 Descending Denver Center
Sat 11:35:10 AM 37.2106 -107.6792 230° Southwest 173 199 8,500 -793 Descending Denver Center
Sat 11:36:10 AM 37.1831 -107.7206 235° Southwest 140 161 7,400 -807 Descending Denver Center
Sat 11:37:09 AM 37.1597 -107.7617 235° Southwest 140 161 6,900 -508 Descending Denver Center

Login

Don't have an account? Register now (free) for customized features, flight alerts, and more!